Regional Weather Roundup
Issued by NWS

Home | Current Version | Previous Version | Text Only | Print | Product List | Glossary Off
Versions: 1 2 3 4 5 6 7 8 9 10 11 12 13 14 15 16 17 18 19 20 21 22 23 24 25 26 27 28 29 30 31 32 33 34 35 36 37 38 39 40 41 42 43 44 45 46 47 48 49 50

000
ASUS43 KLOT 010110
RWRIL

ILLINOIS REGIONAL WEATHER ROUNDUP
NATIONAL WEATHER SERVICE CHICAGO/ROMEOVILLE IL
700 PM CST SAT JAN 31 2015

NOTE: "FAIR" INDICATES FEW OR NO CLOUDS BELOW 12,000 FEET WITH NO
SIGNIFICANT WEATHER AND/OR OBSTRUCTIONS TO VISIBILITY.

* THESE STATIONS ARE NOT UNDER NWS QUALITY CONTROL. THEY ALSO MAY NOT
  REPORT WEATHER SUCH AS PRECIPITATION OR FOG.

ILZ001-002-007-009-015-016-024-010200-
NORTHWEST ILLINOIS

CITY           SKY/WX    TMP DP  RH WIND       PRES   REMARKS
MOLINE         LGT RAIN  34  32  92 SE3       30.13S FOG
STERLING*        N/A    N/A N/A N/A MISG        N/A
SAVANNA*       RAIN      33  32  96 SE3       30.14S
$$

ILZ003-004-008-010-011-017-018-010200-
NORTH CENTRAL ILLINOIS

CITY           SKY/WX    TMP DP  RH WIND       PRES   REMARKS
ROCKFORD       FLURRIES  34  25  69 E6        30.17F WCI  29
FREEPORT*      CLOUDY    32  26  78 E5        30.16F WCI  27
ROCHELLE*      CLOUDY    32  32 100 CALM      30.16S FOG
DE KALB*       MIX PCPN  32  31  95 CALM      30.16S
PERU*          LGT RAIN  36  35  96 SW8       30.17S WCI  29
$$

ILZ005-006-012>014-019>023-010200-
NORTHEAST ILLINOIS

CITY           SKY/WX    TMP DP  RH WIND       PRES   REMARKS
CHICAGO-OHARE  CLOUDY    34  28  79 CALM      30.16F
CHICAGO-MIDWAY CLOUDY    37  29  72 SW5       30.18S WCI  33
AURORA         LGT RAIN  35  31  85 SW5       30.17S WCI  31
LANSING*       CLOUDY    34  31  88 CALM      30.19S
JOLIET*        LGT RAIN  33  33  99 CALM      30.18S VSB 1
WAUKEGAN       CLOUDY    32  25  75 E6        30.17S WCI  26
DUPAGE AIRPORT CLOUDY    34  30  85 SW5       30.16S WCI  30
KANKAKEE*      RAIN      34  33  95 SW10      30.19F WCI  26
WHEELING       CLOUDY    34  24  67 E6        30.19S WCI  29
MORRIS*        RAIN      34  34 100 CALM      30.17S VSB 1/2
ROMEOVILLE*    CLOUDY    34  33  97 CALM      30.17S FOG
NORTHERLY ISL    N/A     33  27  79 N1          N/A
$$

LMZ740>746-010200-
SOUTHERN LAKE MICHIGAN

STATION/POSITION SKY/WX   TEMP    WIND        PRES    VSBY  WAVE
                          AIR SEA DIR/SP/G                  HT/PER
                          (F)     (DEG/KT/KT) (MB)    (MI)  (FT/S)
WAUKEGAN HARBOR            32        CALM       N/A
HARRISON CRIB              33      80/  6/  7   N/A
BURNHAM HARBOR             33      CALM  /  3   N/A
CALUMET HARBOR             36     250/  1/  2   N/A
MICHIGAN CITY              34     230/  1/  2   N/A
$$

ILZ025>027-034>036-040-047-049-050-058-095>099-010200-
WEST-CENTRAL ILLINOIS

CITY           SKY/WX    TMP DP  RH WIND       PRES   REMARKS
QUINCY         LGT RAIN  34  32  92 S8        30.13F FOG     WCI  27
GALESBURG*     RAIN      33  33 100 SE3       30.14F
MACOMB*        CLOUDY    33  33 100 S6        30.17S FOG     WCI  28
JACKSONVILLE*  LGT RAIN  37  33  86 SE5       30.17F WCI  33
PITTSFIELD*    LGT RAIN  35  33  92 SE5       30.16F WCI  31
$$

ILZ028>032-037-038-041>044-048-051>054-059>061-010200-
CENTRAL ILLINOIS

CITY           SKY/WX    TMP DP  RH WIND       PRES   REMARKS
PONTIAC        LGT SNOW  34  33  98 CALM      30.20S
BLOOMINGTON    LGT SNOW  33  33 100 S6        30.19F FOG     WCI  27
DECATUR        CLOUDY    34  33  96 S7        30.20F FOG     WCI  28
PEORIA         LGT RAIN  35  32  88 SE3       30.17F FOG
LACON*         LGT RAIN  33  32  97 S3        30.17F
LINCOLN*       LGT RAIN  35  33  94 SE3       30.19F
SPRINGFIELD    CLOUDY    36  32  85 SE7       30.19F WCI  30
TAYLORVILLE    CLOUDY    34  32  93 SE7       30.20S WCI  28
$$

ILZ033-039-045-046-055>057-062-063-010200-
EAST-CENTRAL ILLINOIS

CITY           SKY/WX    TMP DP  RH WIND       PRES   REMARKS
CHAMPAIGN      LGT RAIN  33  31  92 SE7       30.21F FOG     WCI  27
DANVILLE*      LGT SNOW  32  31  98 S8        30.20F WCI  25
RANTOUL*       LGT RAIN  35  33  94 S5        30.21S WCI  31
MATTOON        LGT RAIN  34  32  92 CALM      30.19F
PARIS*         LGT RAIN  33  32  96 CALM      30.25F
$$

ILZ079-100>102-010200-
SOUTHWEST ILLINOIS

CITY           SKY/WX    TMP DP  RH WIND       PRES   REMARKS
BELLEVILLE     CLOUDY    39  28  65 E8        30.17F WCI  33
CAHOKIA*       CLOUDY    41  28  60 VRB6      30.19R
SPARTA*        CLOUDY    38  27  63 E7        30.16F WCI  33
$$

ILZ064>066-069>071-074>076-080>082-084>086-088>090-092>094-010200-
SOUTH-CENTRAL ILLINOIS

CITY           SKY/WX    TMP DP  RH WIND       PRES   REMARKS
CARBONDALE     CLOUDY    40  26  57 E7        30.16F
CAIRO*         CLOUDY    42  28  58 E6        30.20F
EFFINGHAM*     CLOUDY    36  28  75 CALM      30.24F
MARION         CLOUDY    41  25  52 E7        30.17F
MT. VERNON     CLOUDY    39  27  60 E6        30.20F WCI  35
CENTRALIA*     CLOUDY    38  26  62 E3        30.19F
SALEM*         CLOUDY    41  28  57 E3        30.20F
METROPOLIS*    CLOUDY    41  27  56 E3        30.21F
$$

ILZ067-068-072-073-078-083-087-091-010200-
SOUTHEAST ILLINOIS

CITY           SKY/WX    TMP DP  RH WIND       PRES   REMARKS
LAWRENCEVILLE  CLOUDY    37  29  72 S5        30.26R WCI  33
FLORA*         CLOUDY    36  31  81 S5        30.24F WCI  32
FAIRFIELD*     CLOUDY    39  29  68 E3        30.21F
HARRISBURG*    CLOUDY    38  33  81 E5        30.24F WCI  34
ROBINSON*      CLOUDY    35  33  92 NE9       30.22F WCI  27
CARMI*         CLOUDY    39  32  75 SE6       30.23F
$$

ABBREVIATIONS USED IN REMARKS
   TC - TEMPERATURE IN CELSIUS
  WCI - WIND CHILL INDEX
   HX - HEAT INDEX
  VSB - VISIBILITY
$$




USA.gov is the U.S. government's official web portal to all federal, state and local government web resources and services.